|
ATLAS 5 CENTAUR R/B - Orbit
|
Slemon Park;
06:34:54
| Home | Info | Passes |
|
View from above orbital plane
|
View from above satellite
|
Ground track
|
The orbit data is extracted from the following two-line orbital elements,
1 31702U 07027B 13102.05360771 0.00000400 00000-0 18613-3 0 04
2 31702 63.3729 346.4529 0097000 337.5171 22.4829 14.17918344 00
| Epoch (UTC): | 12 April 2013 01:17:11 |
| Eccentricity: | 0.0097000 |
| inclination: | 63.3729° |
| perigee height: | 762 km |
| apogee height: | 902 km |
| right ascension of ascending node: | 346.4529° |
| argument of perigee: | 337.5171° |
| revolutions per day: | 14.17918344 |
| mean anomaly at epoch: | 22.4829° |
| orbit number at epoch: | 0 |
The dashed part of the orbit path shows where the satellite is in the earth's shadow,
|
|